Location: Kikino
(54.4440°N, 112.0940°W)
Time: 19:34:32
(UTC+00:00)

A-11 Canister half - Pass Details

Date: 20 May 2024
Orbit: 1525 x 1683 km, 47.3° (Epoch: 12 June)

Event Time Altitude Azimuth Distance (km) Brightness Sun altitude
Rises 05:42:20 0° 225° (SW) 4,696 11.3 -12.3°
Reaches altitude 10° 05:45:33 10° 218° (SW) 3,730 10.8 -12.5°
Maximum altitude 05:54:09 42° 152° (SSE) 2,147 9.3 -13.0°
Drops below altitude 10° 06:03:02 10° 87° (E) 3,851 10.9 -13.4°
Sets 06:06:24 0° 81° (E) 4,861 11.5 -13.6°
